| time (UTC) | temp C | wind direction | speed KPH | gust KPH | rain 1hr cm | rain 24hr cm | rain mn cm | humidity % | barometer mb |
| 20260906182422 | 38 | 212 | 3.2 | 8.0 | 0.00 | 0.00 | 0.00 | 32 | 1012.9 |
| 20260906181925 | 38 | 267 | 4.8 | 6.4 | 0.00 | 0.00 | 0.00 | 32 | 1012.9 |
| 20260906181424 | 38 | 209 | 4.8 | 11.3 | 0.00 | 0.00 | 0.00 | 32 | 1013.2 |
| 20260906180922 | 38 | 319 | 8.0 | 9.7 | 0.00 | 0.00 | 0.00 | 31 | 1013.2 |
| 20260906180421 | 38 | 344 | 1.6 | 12.9 | 0.00 | 0.00 | 0.00 | 32 | 1013.2 |
| 20260906175922 | 38 | 267 | 4.8 | 8.0 | 0.00 | 0.00 | 0.00 | 33 | 1013.2 |
| 20260906175423 | 38 | 295 | 3.2 | 6.4 | 0.00 | 0.00 | 0.00 | 34 | 1013.2 |
| 20260906174921 | 37 | 182 | 3.2 | 8.0 | 0.00 | 0.00 | 0.00 | 35 | 1013.5 |
| 20260906174422 | 37 | 258 | 1.6 | 8.0 | 0.00 | 0.00 | 0.00 | 34 | 1013.5 |
| 20260906173926 | 36 | 222 | 4.8 | 8.0 | 0.00 | 0.00 | 0.00 | 36 | 1013.9 |
| 20260906173423 | 36 | 280 | 4.8 | 4.8 | 0.00 | 0.00 | 0.00 | 36 | 1013.9 |
| 20260906172923 | 36 | 173 | 3.2 | 4.8 | 0.00 | 0.00 | 0.00 | 36 | 1013.9 |
| 20260906172422 | 38 | 310 | 14.5 | 16.1 | 0.00 | 0.00 | 0.00 | 34 | 1013.9 |
| 20260906171922 | 37 | 324 | 8.0 | 11.3 | 0.00 | 0.00 | 0.00 | 35 | 1014.2 |
| 20260906171423 | 37 | 329 | 4.8 | 9.7 | 0.00 | 0.00 | 0.00 | 35 | 1014.2 |
| 20260906170922 | 37 | 301 | 4.8 | 11.3 | 0.00 | 0.00 | 0.00 | 35 | 1014.2 |
| 20260906170422 | 37 | 168 | 6.4 | 11.3 | 0.00 | 0.00 | 0.00 | 34 | 1014.2 |
| 20260906165922 | 37 | 219 | 4.8 | 8.0 | 0.00 | 0.00 | 0.00 | 35 | 1014.6 |
| 20260906165424 | 37 | 310 | 9.7 | 9.7 | 0.00 | 0.00 | 0.00 | 35 | 1014.2 |
| 20260906164924 | 37 | 278 | 6.4 | 11.3 | 0.00 | 0.00 | 0.00 | 35 | 1014.6 |
| 20260906164423 | 37 | 322 | 11.3 | 14.5 | 0.00 | 0.00 | 0.00 | 35 | 1014.9 |
| 20260906163922 | 37 | 217 | 3.2 | 4.8 | 0.00 | 0.00 | 0.00 | 36 | 1014.6 |
| 20260906163422 | 37 | 249 | 3.2 | 6.4 | 0.00 | 0.00 | 0.00 | 36 | 1014.6 |
| 20260906162922 | 37 | 265 | 3.2 | 4.8 | 0.00 | 0.00 | 0.00 | 36 | 1014.9 |
| 20260906162422 | 37 | 213 | 4.8 | 11.3 | 0.00 | 0.00 | 0.00 | 37 | 1014.6 |
| 20260906161922 | 36 | 300 | 3.2 | 8.0 | 0.00 | 0.00 | 0.00 | 37 | 1014.6 |
| 20260906161422 | 36 | 255 | 3.2 | 4.8 | 0.00 | 0.00 | 0.00 | 37 | 1014.6 |
| 20260906160922 | 36 | 192 | 4.8 | 8.0 | 0.00 | 0.00 | 0.00 | 37 | 1014.9 |
| 20260906160421 | 36 | 234 | 1.6 | 4.8 | 0.00 | 0.00 | 0.00 | 38 | 1014.9 |
| 20260906155922 | 36 | 288 | 4.8 | 6.4 | 0.00 | 0.00 | 0.00 | 39 | 1015.2 |
| 20260906155422 | 35 | 216 | 3.2 | 4.8 | 0.00 | 0.00 | 0.00 | 40 | 1014.9 |
| 20260906154922 | 35 | 310 | 6.4 | 6.4 | 0.00 | 0.00 | 0.00 | 40 | 1014.9 |
| 20260906154422 | 35 | 274 | 3.2 | 8.0 | 0.00 | 0.00 | 0.00 | 40 | 1014.9 |
| 20260906153422 | 34 | 222 | 6.4 | 9.7 | 0.00 | 0.00 | 0.00 | 43 | 1014.9 |
| 20260906152932 | 34 | 238 | 6.4 | 9.7 | 0.00 | 0.00 | 0.00 | 42 | 1014.9 |
| 20260906152422 | 34 | 228 | 3.2 | 8.0 | 0.00 | 0.00 | 0.00 | 43 | 1014.9 |
| 20260906151922 | 33 | 247 | 4.8 | 4.8 | 0.00 | 0.00 | 0.00 | 43 | 1014.9 |
| 20260906151422 | 33 | 209 | 4.8 | 4.8 | 0.00 | 0.00 | 0.00 | 44 | 1014.6 |
| 20260906150922 | 33 | 264 | 1.6 | 4.8 | 0.00 | 0.00 | 0.00 | 44 | 1014.9 |
| 20260906150422 | 32 | 245 | 0.0 | 4.8 | 0.00 | 0.00 | 0.00 | 46 | 1014.6 |
| 20260906145924 | 32 | 244 | 4.8 | 4.8 | 0.00 | 0.00 | 0.00 | 47 | 1014.9 |
| 20260906145422 | 31 | 218 | 3.2 | 4.8 | 0.00 | 0.00 | 0.00 | 50 | 1015.2 |
| 20260906144922 | 31 | 313 | 3.2 | 4.8 | 0.00 | 0.00 | 0.00 | 51 | 1014.9 |
| 20260906144422 | 31 | 293 | 0.0 | 3.2 | 0.00 | 0.00 | 0.00 | 52 | 1014.9 |
| 20260906143923 | 31 | 259 | 3.2 | 3.2 | 0.00 | 0.00 | 0.00 | 54 | 1014.9 |
| 20260906143422 | 30 | 271 | 1.6 | 4.8 | 0.00 | 0.00 | 0.00 | 54 | 1015.2 |
| 20260906142922 | 30 | 256 | 3.2 | 4.8 | 0.00 | 0.00 | 0.00 | 55 | 1014.6 |
| 20260906142422 | 30 | 157 | 3.2 | 6.4 | 0.00 | 0.00 | 0.00 | 56 | 1014.9 |
| 20260906141922 | 29 | 221 | 4.8 | 4.8 | 0.00 | 0.00 | 0.00 | 58 | 1014.9 |
| 20260906141422 | 28 | 258 | 0.0 | 3.2 | 0.00 | 0.00 | 0.00 | 59 | 1015.2 |
| 20260906140927 | 28 | 290 | 1.6 | 4.8 | 0.00 | 0.00 | 0.00 | 58 | 1015.2 |
| 20260906140423 | 28 | 217 | 3.2 | 6.4 | 0.00 | 0.00 | 0.00 | 59 | 1014.9 |
| 20260906135922 | 28 | 220 | 3.2 | 6.4 | 0.00 | 0.00 | 0.00 | 60 | 1014.9 |
| 20260906135422 | 28 | 167 | 4.8 | 9.7 | 0.00 | 0.00 | 0.00 | 61 | 1014.9 |
| 20260906134922 | 28 | 192 | 4.8 | 8.0 | 0.00 | 0.00 | 0.00 | 61 | 1014.6 |
| 20260906134423 | 28 | 183 | 4.8 | 9.7 | 0.00 | 0.00 | 0.00 | 62 | 1014.9 |
| 20260906133922 | 27 | 230 | 6.4 | 8.0 | 0.00 | 0.00 | 0.00 | 62 | 1014.9 |
| 20260906133422 | 27 | 193 | 4.8 | 4.8 | 0.00 | 0.00 | 0.00 | 63 | 1014.9 |
| 20260906132922 | 27 | 198 | 4.8 | 6.4 | 0.00 | 0.00 | 0.00 | 64 | 1014.9 |
| 20260906132423 | 27 | 198 | 4.8 | 6.4 | 0.00 | 0.00 | 0.00 | 64 | 1014.9 |
| 20260906131922 | 26 | 167 | 3.2 | 6.4 | 0.00 | 0.00 | 0.00 | 65 | 1014.6 |
| 20260906131422 | 26 | 183 | 4.8 | 6.4 | 0.00 | 0.00 | 0.00 | 65 | 1014.9 |
| 20260906130930 | 26 | 190 | 4.8 | 9.7 | 0.00 | 0.00 | 0.00 | 66 | 1014.6 |
| 20260906130422 | 26 | 193 | 8.0 | 9.7 | 0.00 | 0.00 | 0.00 | 66 | 1014.9 |
| 20260906125922 | 26 | 186 | 8.0 | 11.3 | 0.00 | 0.00 | 0.00 | 67 | 1014.6 |
| 20260906125422 | 25 | 204 | 9.7 | 11.3 | 0.00 | 0.00 | 0.00 | 70 | 1014.2 |
| 20260906124923 | 24 | 204 | 1.6 | 8.0 | 0.00 | 0.00 | 0.00 | 74 | 1014.6 |
| 20260906124423 | 23 | 246 | 0.0 | 9.7 | 0.00 | 0.00 | 0.00 | 76 | 1014.2 |
| 20260906123923 | 23 | 220 | 4.8 | 8.0 | 0.00 | 0.00 | 0.00 | 76 | 1014.2 |
| 20260906123422 | 23 | 185 | 4.8 | 8.0 | 0.00 | 0.00 | 0.00 | 77 | 1014.2 |
| 20260906122922 | 23 | 216 | 4.8 | 8.0 | 0.00 | 0.00 | 0.00 | 78 | 1014.2 |
| 20260906122422 | 23 | 212 | 3.2 | 4.8 | 0.00 | 0.00 | 0.00 | 77 | 1014.2 |
| 20260906121921 | 23 | 101 | 0.0 | 4.8 | 0.00 | 0.00 | 0.00 | 77 | 1013.9 |
| 20260906121422 | 23 | 269 | 4.8 | 4.8 | 0.00 | 0.00 | 0.00 | 77 | 1013.9 |
| 20260906120922 | 23 | 333 | 0.0 | 0.0 | 0.00 | 0.00 | 0.00 | 76 | 1013.5 |
| 20260906120422 | 23 | 277 | 0.0 | 4.8 | 0.00 | 0.00 | 0.00 | 77 | 1013.5 |
| 20260906115922 | 23 | 194 | 1.6 | 4.8 | 0.00 | 0.00 | 0.00 | 77 | 1013.5 |
| 20260906115422 | 23 | 269 | 6.4 | 6.4 | 0.00 | 0.00 | 0.00 | 77 | 1013.5 |
| 20260906114922 | 23 | 113 | 3.2 | 4.8 | 0.00 | 0.00 | 0.00 | 77 | 1013.5 |
| 20260906114422 | 23 | 219 | 0.0 | 3.2 | 0.00 | 0.00 | 0.00 | 77 | 1013.5 |
| 20260906113922 | 23 | 356 | 1.6 | 3.2 | 0.00 | 0.00 | 0.00 | 77 | 1013.5 |
| 20260906113422 | 23 | 12 | 1.6 | 6.4 | 0.00 | 0.00 | 0.00 | 76 | 1013.5 |
| 20260906112923 | 23 | 313 | 0.0 | 1.6 | 0.00 | 0.00 | 0.00 | 76 | 1013.5 |
| 20260906112422 | 23 | 304 | 0.0 | 1.6 | 0.00 | 0.00 | 0.00 | 75 | 1013.5 |
| 20260906111922 | 23 | 266 | 0.0 | 1.6 | 0.00 | 0.00 | 0.00 | 75 | 1013.5 |
| 20260906111422 | 23 | 259 | 0.0 | 1.6 | 0.00 | 0.00 | 0.00 | 75 | 1013.2 |
| 20260906110922 | 23 | 253 | 1.6 | 3.2 | 0.00 | 0.00 | 0.00 | 74 | 1013.2 |
| 20260906110423 | 24 | 241 | 0.0 | 1.6 | 0.00 | 0.00 | 0.00 | 75 | 1013.2 |
| 20260906105922 | 23 | 200 | 1.6 | 3.2 | 0.00 | 0.00 | 0.00 | 75 | 1013.2 |
| 20260906105422 | 23 | 192 | 3.2 | 3.2 | 0.00 | 0.00 | 0.00 | 76 | 1013.2 |
| 20260906104923 | 23 | 315 | 0.0 | 0.0 | 0.00 | 0.00 | 0.00 | 75 | 1013.2 |
| 20260906104422 | 23 | 290 | 0.0 | 1.6 | 0.00 | 0.00 | 0.00 | 75 | 1013.5 |
| 20260906103922 | 23 | 299 | 0.0 | 1.6 | 0.00 | 0.00 | 0.00 | 74 | 1013.2 |
| 20260906103422 | 24 | 293 | 1.6 | 1.6 | 0.00 | 0.00 | 0.00 | 74 | 1013.5 |
| 20260906102921 | 24 | 269 | 0.0 | 1.6 | 0.00 | 0.00 | 0.00 | 74 | 1013.2 |
| 20260906102422 | 24 | 226 | 1.6 | 3.2 | 0.00 | 0.00 | 0.00 | 73 | 1013.2 |
| 20260906101922 | 24 | 219 | 1.6 | 1.6 | 0.00 | 0.00 | 0.00 | 73 | 1013.2 |
| 20260906101422 | 24 | 219 | 1.6 | 3.2 | 0.00 | 0.00 | 0.00 | 72 | 1012.9 |
| 20260906100924 | 25 | 242 | 0.0 | 1.6 | 0.00 | 0.00 | 0.00 | 72 | 1013.2 |
| 20260906100422 | 25 | 222 | 3.2 | 3.2 | 0.00 | 0.00 | 0.00 | 72 | 1012.9 |
| 20260906095922 | 24 | 205 | 1.6 | 3.2 | 0.00 | 0.00 | 0.00 | 72 | 1013.2 |
| 20260906095423 | 25 | 238 | 3.2 | 3.2 | 0.00 | 0.00 | 0.00 | 72 | 1012.9 |
| 20260906094922 | 25 | 266 | 1.6 | 1.6 | 0.00 | 0.00 | 0.00 | 72 | 1012.5 |
| 20260906094422 | 25 | 257 | 1.6 | 1.6 | 0.00 | 0.00 | 0.00 | 71 | 1012.9 |
| 20260906093922 | 25 | 216 | 3.2 | 3.2 | 0.00 | 0.00 | 0.00 | 72 | 1012.9 |
| 20260906093422 | 25 | 221 | 1.6 | 3.2 | 0.00 | 0.00 | 0.00 | 72 | 1012.9 |
| 20260906092922 | 25 | 266 | 1.6 | 1.6 | 0.00 | 0.00 | 0.00 | 72 | 1012.9 |
| 20260906092423 | 25 | 231 | 0.0 | 0.0 | 0.00 | 0.00 | 0.00 | 71 | 1012.9 |
| 20260906091923 | 25 | 288 | 1.6 | 1.6 | 0.00 | 0.00 | 0.00 | 70 | 1013.2 |
| 20260906091423 | 25 | 246 | 0.0 | 4.8 | 0.00 | 0.00 | 0.00 | 70 | 1012.9 |
| 20260906090922 | 25 | 253 | 0.0 | 3.2 | 0.00 | 0.00 | 0.00 | 70 | 1013.2 |
| 20260906090422 | 25 | 207 | 3.2 | 3.2 | 0.00 | 0.00 | 0.00 | 70 | 1013.2 |
| 20260906085922 | 25 | 271 | 1.6 | 3.2 | 0.00 | 0.00 | 0.00 | 70 | 1013.2 |
| 20260906085422 | 25 | 283 | 0.0 | 3.2 | 0.00 | 0.00 | 0.00 | 70 | 1013.2 |
| 20260906084922 | 25 | 220 | 0.0 | 0.0 | 0.00 | 0.00 | 0.00 | 70 | 1012.9 |
| 20260906084423 | 25 | 269 | 3.2 | 3.2 | 0.00 | 0.00 | 0.00 | 70 | 1012.9 |
| 20260906083922 | 25 | 336 | 0.0 | 1.6 | 0.00 | 0.00 | 0.00 | 70 | 1012.9 |
| 20260906083422 | 25 | 233 | 0.0 | 3.2 | 0.00 | 0.00 | 0.00 | 71 | 1012.9 |
| 20260906082922 | 25 | 255 | 1.6 | 3.2 | 0.00 | 0.00 | 0.00 | 71 | 1012.9 |
| 20260906082422 | 25 | 280 | 1.6 | 3.2 | 0.00 | 0.00 | 0.00 | 71 | 1012.9 |
| 20260906081922 | 25 | 315 | 0.0 | 1.6 | 0.00 | 0.00 | 0.00 | 71 | 1012.9 |
| 20260906081422 | 25 | 231 | 3.2 | 3.2 | 0.00 | 0.00 | 0.00 | 72 | 1012.9 |
| 20260906080924 | 25 | 297 | 0.0 | 3.2 | 0.00 | 0.00 | 0.00 | 72 | 1012.9 |
| 20260906080422 | 25 | 252 | 1.6 | 1.6 | 0.00 | 0.00 | 0.00 | 71 | 1013.2 |
| 20260906075922 | 25 | 258 | 0.0 | 1.6 | 0.00 | 0.00 | 0.00 | 71 | 1012.9 |
| 20260906075422 | 25 | 266 | 0.0 | 1.6 | 0.00 | 0.00 | 0.00 | 71 | 1012.9 |
| 20260906074922 | 25 | 262 | 0.0 | 1.6 | 0.00 | 0.00 | 0.00 | 71 | 1013.2 |
| 20260906074422 | 25 | 293 | 0.0 | 1.6 | 0.00 | 0.00 | 0.00 | 70 | 1013.2 |
| 20260906073922 | 25 | 315 | 0.0 | 1.6 | 0.00 | 0.00 | 0.00 | 70 | 1012.9 |
| 20260906073422 | 25 | 260 | 1.6 | 3.2 | 0.00 | 0.00 | 0.00 | 70 | 1012.9 |
| 20260906072922 | 25 | 269 | 0.0 | 0.0 | 0.00 | 0.00 | 0.00 | 70 | 1013.2 |
| 20260906072423 | 25 | 297 | 0.0 | 1.6 | 0.00 | 0.00 | 0.00 | 70 | 1013.2 |
| 20260906071922 | 25 | 314 | 0.0 | 1.6 | 0.00 | 0.00 | 0.00 | 69 | 1012.9 |
| 20260906071422 | 25 | 293 | 0.0 | 1.6 | 0.00 | 0.00 | 0.00 | 69 | 1012.9 |
| 20260906070923 | 25 | 284 | 0.0 | 1.6 | 0.00 | 0.00 | 0.00 | 68 | 1013.2 |
| 20260906070423 | 25 | 274 | 0.0 | 1.6 | 0.00 | 0.00 | 0.00 | 68 | 1013.2 |
| 20260906065923 | 25 | 275 | 1.6 | 1.6 | 0.00 | 0.00 | 0.00 | 68 | 1013.2 |
| 20260906065422 | 26 | 269 | 1.6 | 3.2 | 0.00 | 0.00 | 0.00 | 67 | 1012.9 |
| 20260906064922 | 26 | 297 | 0.0 | 3.2 | 0.00 | 0.00 | 0.00 | 66 | 1013.2 |
| 20260906064423 | 26 | 324 | 1.6 | 3.2 | 0.00 | 0.00 | 0.00 | 66 | 1013.2 |
| 20260906063922 | 26 | 313 | 1.6 | 3.2 | 0.00 | 0.00 | 0.00 | 65 | 1013.2 |
| 20260906063422 | 26 | 293 | 0.0 | 1.6 | 0.00 | 0.00 | 0.00 | 64 | 1013.2 |
| 20260906062921 | 26 | 309 | 0.0 | 0.0 | 0.00 | 0.00 | 0.00 | 64 | 1013.5 |
| 20260906062422 | 26 | 315 | 0.0 | 0.0 | 0.00 | 0.00 | 0.00 | 63 | 1013.2 |
| 20260906061921 | 26 | 315 | 0.0 | 0.0 | 0.00 | 0.00 | 0.00 | 63 | 1013.5 |
| 20260906061422 | 26 | 217 | 0.0 | 3.2 | 0.00 | 0.00 | 0.00 | 63 | 1013.5 |
| 20260906060922 | 27 | 314 | 0.0 | 1.6 | 0.00 | 0.00 | 0.00 | 63 | 1013.2 |
| 20260906060422 | 27 | 331 | 1.6 | 3.2 | 0.00 | 0.00 | 0.00 | 63 | 1013.2 |
| 20260906055922 | 27 | 314 | 1.6 | 1.6 | 0.00 | 0.00 | 0.00 | 63 | 1013.2 |
| 20260906055422 | 27 | 315 | 1.6 | 3.2 | 0.00 | 0.00 | 0.00 | 63 | 1013.2 |
| 20260906054922 | 26 | 326 | 0.0 | 3.2 | 0.00 | 0.00 | 0.00 | 63 | 1012.9 |
| 20260906054422 | 26 | 315 | 0.0 | 1.6 | 0.00 | 0.00 | 0.00 | 63 | 1013.2 |
| 20260906053922 | 26 | 294 | 0.0 | 1.6 | 0.00 | 0.00 | 0.00 | 63 | 1012.9 |
| 20260906053422 | 26 | 317 | 1.6 | 3.2 | 0.00 | 0.00 | 0.00 | 63 | 1012.9 |
| 20260906052922 | 26 | 326 | 0.0 | 1.6 | 0.00 | 0.00 | 0.00 | 63 | 1012.9 |
| 20260906052422 | 27 | 290 | 0.0 | 1.6 | 0.00 | 0.00 | 0.00 | 62 | 1013.2 |
| 20260906051922 | 27 | 230 | 0.0 | 0.0 | 0.00 | 0.00 | 0.00 | 62 | 1013.2 |
| 20260906051422 | 27 | 315 | 0.0 | 1.6 | 0.00 | 0.00 | 0.00 | 62 | 1013.2 |
| 20260906050921 | 27 | 302 | 1.6 | 3.2 | 0.00 | 0.00 | 0.00 | 62 | 1013.2 |
| 20260906050422 | 27 | 295 | 0.0 | 0.0 | 0.00 | 0.00 | 0.00 | 62 | 1013.2 |
| 20260906045922 | 27 | 329 | 0.0 | 1.6 | 0.00 | 0.00 | 0.00 | 62 | 1013.2 |
| 20260906045422 | 27 | 242 | 0.0 | 1.6 | 0.00 | 0.00 | 0.00 | 61 | 1013.2 |
| 20260906044922 | 27 | 311 | 0.0 | 0.0 | 0.00 | 0.00 | 0.00 | 61 | 1013.2 |
| 20260906044422 | 27 | 304 | 0.0 | 1.6 | 0.00 | 0.00 | 0.00 | 61 | 1012.9 |
| 20260906043924 | 27 | 284 | 0.0 | 0.0 | 0.00 | 0.00 | 0.00 | 61 | 1013.2 |
| 20260906043423 | 27 | 224 | 0.0 | 0.0 | 0.00 | 0.00 | 0.00 | 61 | 1013.2 |
| 20260906042922 | 27 | 309 | 0.0 | 0.0 | 0.00 | 0.00 | 0.00 | 62 | 1013.2 |
| 20260906042422 | 27 | 296 | 0.0 | 1.6 | 0.00 | 0.00 | 0.00 | 61 | 1013.5 |
| 20260906041922 | 27 | 291 | 0.0 | 1.6 | 0.00 | 0.00 | 0.00 | 61 | 1013.2 |
| 20260906041422 | 27 | 309 | 0.0 | 3.2 | 0.00 | 0.00 | 0.00 | 61 | 1013.5 |
| 20260906040921 | 27 | 224 | 0.0 | 0.0 | 0.00 | 0.00 | 0.00 | 61 | 1013.2 |
| 20260906040422 | 27 | 269 | 0.0 | 1.6 | 0.00 | 0.00 | 0.00 | 61 | 1013.2 |
| 20260906035922 | 27 | 279 | 0.0 | 3.2 | 0.00 | 0.00 | 0.00 | 60 | 1013.5 |
| 20260906035422 | 28 | 260 | 1.6 | 3.2 | 0.00 | 0.00 | 0.00 | 59 | 1013.2 |
| 20260906034922 | 28 | 272 | 1.6 | 1.6 | 0.00 | 0.00 | 0.00 | 59 | 1013.2 |
| 20260906034422 | 28 | 232 | 1.6 | 3.2 | 0.00 | 0.00 | 0.00 | 58 | 1013.2 |
| 20260906033922 | 28 | 314 | 0.0 | 1.6 | 0.00 | 0.00 | 0.00 | 58 | 1012.9 |
| 20260906033422 | 28 | 299 | 0.0 | 3.2 | 0.00 | 0.00 | 0.00 | 57 | 1012.9 |
| 20260906032923 | 28 | 269 | 0.0 | 3.2 | 0.00 | 0.00 | 0.00 | 57 | 1012.9 |
| 20260906032422 | 28 | 252 | 0.0 | 1.6 | 0.00 | 0.00 | 0.00 | 57 | 1012.9 |
| 20260906031922 | 28 | 238 | 1.6 | 1.6 | 0.00 | 0.00 | 0.00 | 56 | 1012.9 |
| 20260906031422 | 29 | 248 | 1.6 | 1.6 | 0.00 | 0.00 | 0.00 | 55 | 1012.9 |
| 20260906030922 | 29 | 269 | 0.0 | 1.6 | 0.00 | 0.00 | 0.00 | 55 | 1013.2 |
| 20260906030422 | 29 | 282 | 1.6 | 1.6 | 0.00 | 0.00 | 0.00 | 55 | 1012.9 |
| 20260906025923 | 29 | 309 | 0.0 | 1.6 | 0.00 | 0.00 | 0.00 | 55 | 1012.9 |
| 20260906025422 | 29 | 290 | 1.6 | 1.6 | 0.00 | 0.00 | 0.00 | 54 | 1012.9 |
| 20260906024923 | 29 | 228 | 3.2 | 3.2 | 0.00 | 0.00 | 0.00 | 54 | 1012.9 |
| 20260906024422 | 29 | 300 | 0.0 | 1.6 | 0.00 | 0.00 | 0.00 | 54 | 1012.5 |
| 20260906023922 | 30 | 293 | 0.0 | 1.6 | 0.00 | 0.00 | 0.00 | 53 | 1012.9 |
| 20260906023423 | 30 | 280 | 0.0 | 3.2 | 0.00 | 0.00 | 0.00 | 53 | 1012.9 |
| 20260906022922 | 30 | 231 | 1.6 | 4.8 | 0.00 | 0.00 | 0.00 | 52 | 1012.5 |
| 20260906022422 | 30 | 205 | 0.0 | 3.2 | 0.00 | 0.00 | 0.00 | 52 | 1012.5 |
| 20260906021922 | 30 | 195 | 0.0 | 1.6 | 0.00 | 0.00 | 0.00 | 52 | 1012.2 |
| 20260906021422 | 30 | 306 | 4.8 | 8.0 | 0.00 | 0.00 | 0.00 | 51 | 1012.9 |
| 20260906020922 | 30 | 299 | 0.0 | 3.2 | 0.00 | 0.00 | 0.00 | 50 | 1012.2 |
| 20260906020422 | 30 | 239 | 0.0 | 1.6 | 0.00 | 0.00 | 0.00 | 50 | 1012.2 |
| 20260906015922 | 30 | 257 | 1.6 | 3.2 | 0.00 | 0.00 | 0.00 | 50 | 1012.5 |
| 20260906015422 | 30 | 263 | 0.0 | 1.6 | 0.00 | 0.00 | 0.00 | 50 | 1012.2 |
| 20260906014923 | 30 | 243 | 0.0 | 1.6 | 0.00 | 0.00 | 0.00 | 50 | 1012.2 |
| 20260906014422 | 31 | 269 | 0.0 | 1.6 | 0.00 | 0.00 | 0.00 | 50 | 1011.9 |
| 20260906013922 | 31 | 256 | 0.0 | 1.6 | 0.00 | 0.00 | 0.00 | 49 | 1011.9 |
| 20260906013422 | 31 | 287 | 1.6 | 3.2 | 0.00 | 0.00 | 0.00 | 48 | 1011.9 |
| 20260906012922 | 31 | 275 | 0.0 | 1.6 | 0.00 | 0.00 | 0.00 | 47 | 1011.9 |
| 20260906012422 | 31 | 299 | 1.6 | 3.2 | 0.00 | 0.00 | 0.00 | 47 | 1011.9 |
| 20260906011922 | 31 | 296 | 1.6 | 3.2 | 0.00 | 0.00 | 0.00 | 46 | 1012.2 |
| 20260906011422 | 32 | 276 | 1.6 | 3.2 | 0.00 | 0.00 | 0.00 | 46 | 1011.9 |
| 20260906010922 | 32 | 229 | 0.0 | 1.6 | 0.00 | 0.00 | 0.00 | 47 | 1011.9 |
| 20260906010422 | 32 | 238 | 3.2 | 3.2 | 0.00 | 0.00 | 0.00 | 45 | 1011.9 |
| 20260906005922 | 32 | 254 | 1.6 | 1.6 | 0.00 | 0.00 | 0.00 | 45 | 1011.9 |
| 20260906005422 | 33 | 277 | 1.6 | 3.2 | 0.00 | 0.00 | 0.00 | 43 | 1011.9 |
| 20260906004922 | 33 | 263 | 0.0 | 3.2 | 0.00 | 0.00 | 0.00 | 42 | 1011.5 |
| 20260906004422 | 34 | 251 | 1.6 | 1.6 | 0.00 | 0.00 | 0.00 | 41 | 1011.5 |
| 20260906003922 | 35 | 275 | 1.6 | 3.2 | 0.00 | 0.00 | 0.00 | 39 | 1011.9 |
| 20260906003422 | 36 | 264 | 1.6 | 3.2 | 0.00 | 0.00 | 0.00 | 38 | 1011.5 |
| 20260906002922 | 36 | 251 | 3.2 | 3.2 | 0.00 | 0.00 | 0.00 | 37 | 1011.9 |
| 20260906002422 | 37 | 248 | 1.6 | 3.2 | 0.00 | 0.00 | 0.00 | 36 | 1011.9 |
| 20260906001922 | 37 | 280 | 1.6 | 3.2 | 0.00 | 0.00 | 0.00 | 35 | 1011.5 |
| 20260906001422 | 38 | 263 | 1.6 | 3.2 | 0.00 | 0.00 | 0.00 | 34 | 1011.5 |
| 20260906000922 | 38 | 261 | 0.0 | 3.2 | 0.00 | 0.00 | 0.00 | 33 | 1011.2 |
| 20260906000422 | 38 | 269 | 1.6 | 3.2 | 0.00 | 0.00 | 0.00 | 32 | 1011.5 |
| 20260905235922 | 38 | 259 | 1.6 | 4.8 | 0.00 | 0.00 | 0.00 | 32 | 1011.5 |
| 20260905235422 | 38 | 298 | 3.2 | 4.8 | 0.00 | 0.00 | 0.00 | 31 | 1011.2 |
| 20260905234927 | 38 | 256 | 3.2 | 4.8 | 0.00 | 0.00 | 0.00 | 31 | 1011.5 |
| 20260905234423 | 38 | 261 | 3.2 | 3.2 | 0.00 | 0.00 | 0.00 | 32 | 1011.5 |
| 20260905233923 | 38 | 272 | 3.2 | 4.8 | 0.00 | 0.00 | 0.00 | 31 | 1011.5 |
| 20260905233422 | 38 | 300 | 3.2 | 4.8 | 0.00 | 0.00 | 0.00 | 31 | 1011.5 |
| 20260905232922 | 38 | 248 | 3.2 | 4.8 | 0.00 | 0.00 | 0.00 | 31 | 1011.5 |
| 20260905232422 | 39 | 261 | 3.2 | 4.8 | 0.00 | 0.00 | 0.00 | 31 | 1011.5 |
| 20260905231922 | 38 | 299 | 3.2 | 4.8 | 0.00 | 0.00 | 0.00 | 31 | 1011.2 |
| 20260905231422 | 38 | 289 | 4.8 | 8.0 | 0.00 | 0.00 | 0.00 | 32 | 1011.5 |
| 20260905230923 | 38 | 226 | 3.2 | 4.8 | 0.00 | 0.00 | 0.00 | 33 | 1011.2 |
| 20260905230424 | 38 | 280 | 4.8 | 4.8 | 0.00 | 0.00 | 0.00 | 32 | 1011.2 |
| 20260905225922 | 38 | 307 | 4.8 | 6.4 | 0.00 | 0.00 | 0.00 | 32 | 1011.2 |
| 20260905225425 | 37 | 274 | 3.2 | 3.2 | 0.00 | 0.00 | 0.00 | 33 | 1011.2 |
| 20260905224922 | 37 | 313 | 6.4 | 8.0 | 0.00 | 0.00 | 0.00 | 33 | 1011.2 |
| 20260905224423 | 37 | 290 | 3.2 | 4.8 | 0.00 | 0.00 | 0.00 | 34 | 1011.2 |
| 20260905223922 | 37 | 292 | 3.2 | 3.2 | 0.00 | 0.00 | 0.00 | 35 | 1011.2 |
| 20260905223425 | 37 | 296 | 3.2 | 3.2 | 0.00 | 0.00 | 0.00 | 34 | 1011.2 |
| 20260905222923 | 37 | 224 | 4.8 | 4.8 | 0.00 | 0.00 | 0.00 | 34 | 1011.5 |
| 20260905221946 | 38 | 280 | 3.2 | 4.8 | 0.00 | 0.00 | 0.00 | 33 | 1011.2 |
| 20260905221423 | 38 | 315 | 4.8 | 8.0 | 0.00 | 0.00 | 0.00 | 33 | 1011.2 |
| 20260905220922 | 38 | 331 | 3.2 | 8.0 | 0.00 | 0.00 | 0.00 | 33 | 1011.5 |
| 20260905220422 | 38 | 296 | 4.8 | 9.7 | 0.00 | 0.00 | 0.00 | 32 | 1011.2 |
| 20260905215922 | 38 | 305 | 4.8 | 8.0 | 0.00 | 0.00 | 0.00 | 33 | 1011.2 |
| 20260905215422 | 38 | 311 | 6.4 | 16.1 | 0.00 | 0.00 | 0.00 | 33 | 1011.5 |
| 20260905214922 | 38 | 317 | 9.7 | 12.9 | 0.00 | 0.00 | 0.00 | 33 | 1011.5 |
| 20260905214422 | 38 | 301 | 6.4 | 14.5 | 0.00 | 0.00 | 0.00 | 31 | 1011.2 |
| 20260905213922 | 38 | 243 | 4.8 | 4.8 | 0.00 | 0.00 | 0.00 | 31 | 1011.9 |
| 20260905213423 | 38 | 282 | 4.8 | 4.8 | 0.00 | 0.00 | 0.00 | 31 | 1011.5 |
| 20260905212922 | 38 | 269 | 6.4 | 8.0 | 0.00 | 0.00 | 0.00 | 32 | 1011.9 |
| 20260905212423 | 38 | 276 | 6.4 | 6.4 | 0.00 | 0.00 | 0.00 | 32 | 1011.9 |
| 20260905211921 | 37 | 222 | 4.8 | 4.8 | 0.00 | 0.00 | 0.00 | 32 | 1011.9 |
| 20260905211422 | 37 | 312 | 3.2 | 6.4 | 0.00 | 0.00 | 0.00 | 33 | 1012.2 |
| 20260905210922 | 37 | 257 | 4.8 | 8.0 | 0.00 | 0.00 | 0.00 | 34 | 1012.2 |
| 20260905210422 | 36 | 266 | 3.2 | 8.0 | 0.00 | 0.00 | 0.00 | 35 | 1012.2 |
| 20260905205922 | 36 | 260 | 3.2 | 6.4 | 0.00 | 0.00 | 0.00 | 37 | 1012.2 |
| 20260905205423 | 36 | 294 | 3.2 | 4.8 | 0.00 | 0.00 | 0.00 | 37 | 1012.2 |
| 20260905204922 | 37 | 287 | 3.2 | 4.8 | 0.00 | 0.00 | 0.00 | 37 | 1012.5 |
| 20260905204422 | 37 | 276 | 3.2 | 8.0 | 0.00 | 0.00 | 0.00 | 36 | 1012.5 |
| 20260905203922 | 37 | 273 | 3.2 | 4.8 | 0.00 | 0.00 | 0.00 | 36 | 1012.5 |
| 20260905203422 | 38 | 283 | 3.2 | 4.8 | 0.00 | 0.00 | 0.00 | 35 | 1012.5 |
| 20260905202922 | 38 | 272 | 4.8 | 6.4 | 0.00 | 0.00 | 0.00 | 34 | 1012.5 |
| 20260905202422 | 38 | 256 | 4.8 | 4.8 | 0.00 | 0.00 | 0.00 | 34 | 1012.5 |
| 20260905201922 | 38 | 292 | 8.0 | 14.5 | 0.00 | 0.00 | 0.00 | 34 | 1012.5 |
| 20260905201422 | 37 | 260 | 6.4 | 9.7 | 0.00 | 0.00 | 0.00 | 35 | 1012.9 |
| 20260905200922 | 37 | 236 | 6.4 | 9.7 | 0.00 | 0.00 | 0.00 | 35 | 1012.9 |
| 20260905200422 | 37 | 292 | 4.8 | 9.7 | 0.00 | 0.00 | 0.00 | 34 | 1012.9 |
| 20260905195922 | 37 | 249 | 4.8 | 9.7 | 0.00 | 0.00 | 0.00 | 34 | 1012.9 |
| 20260905195424 | 37 | 230 | 6.4 | 6.4 | 0.00 | 0.00 | 0.00 | 35 | 1012.9 |
| 20260905194923 | 36 | 271 | 6.4 | 11.3 | 0.00 | 0.00 | 0.00 | 36 | 1012.9 |
| 20260905194423 | 36 | 328 | 8.0 | 9.7 | 0.00 | 0.00 | 0.00 | 37 | 1013.5 |
| 20260905193922 | 36 | 277 | 3.2 | 3.2 | 0.00 | 0.00 | 0.00 | 38 | 1013.2 |
| 20260905193422 | 36 | 296 | 4.8 | 11.3 | 0.00 | 0.00 | 0.00 | 37 | 1013.2 |
| 20260905192922 | 37 | 289 | 3.2 | 8.0 | 0.00 | 0.00 | 0.00 | 36 | 1013.5 |
| 20260905192422 | 37 | 303 | 3.2 | 8.0 | 0.00 | 0.00 | 0.00 | 35 | 1013.2 |
| 20260905191922 | 37 | 253 | 4.8 | 8.0 | 0.00 | 0.00 | 0.00 | 36 | 1013.2 |
| 20260905191422 | 37 | 289 | 6.4 | 9.7 | 0.00 | 0.00 | 0.00 | 37 | 1013.2 |
| 20260905190922 | 37 | 198 | 4.8 | 9.7 | 0.00 | 0.00 | 0.00 | 36 | 1013.5 |
| 20260905190422 | 36 | 276 | 3.2 | 4.8 | 0.00 | 0.00 | 0.00 | 36 | 1013.5 |
| 20260905185922 | 37 | 297 | 4.8 | 9.7 | 0.00 | 0.00 | 0.00 | 36 | 1013.5 |
| 20260905185422 | 37 | 236 | 1.6 | 9.7 | 0.00 | 0.00 | 0.00 | 36 | 1013.5 |
| 20260905184922 | 36 | 203 | 3.2 | 8.0 | 0.00 | 0.00 | 0.00 | 35 | 1013.5 |
| 20260905184422 | 36 | 302 | 8.0 | 17.7 | 0.00 | 0.00 | 0.00 | 36 | 1013.9 |
| 20260905183922 | 36 | 286 | 6.4 | 6.4 | 0.00 | 0.00 | 0.00 | 37 | 1014.2 |
| 20260905183422 | 36 | 299 | 6.4 | 11.3 | 0.00 | 0.00 | 0.00 | 37 | 1014.2 |
| 20260905182922 | 36 | 261 | 4.8 | 11.3 | 0.00 | 0.00 | 0.00 | 37 | 1014.2 |